Back to catalog

STARLINK-5401

AliveCommunicationsVLEO
NORAD 54870·PAYLOAD·🇺🇸 United States

Launched Dec 28, 2022 from Cape Canaveral Space Force Station

Loading…

Next Passes (next 24 hours)

TLE

FreshSource: CelesTrak SupGP

Epoch: Sep 15, 2026, 03:02 UTC

1 54870C 22177BC  26258.12687500  .00058509  00000+0  21189-2 0  2582
2 54870  43.0025 131.3942 0001645 271.2771 196.2846 15.27552836    17

Track STARLINK-5401 in real time with AllMySat

Download on the App Store